Regional Weather Roundup
Issued by NWS

Home | Current Version | Previous Version | Text Only | Print | Product List | Glossary On
Versions: 1 2 3 4 5 6 7 8 9 10 11 12 13 14 15 16 17 18 19 20 21 22 23 24 25 26 27 28 29 30 31 32 33 34 35 36 37 38 39 40 41 42 43 44 45 46 47 48 49 50
000
ASUS43 KMKX 221610
RWRWI

WISCONSIN REGIONAL WEATHER ROUNDUP
NATIONAL WEATHER SERVICE MILWAUKEE/SULLIVAN WI
1000 AM CST SUN JAN 22 2017

NOTE: "FAIR" INDICATES FEW OR NO CLOUDS BELOW 12,000 FEET WITH NO
SIGNIFICANT WEATHER AND/OR OBSTRUCTIONS TO VISIBILITY.

WIZ001-002-006>008-014>016-023>028-221700-
NORTHWEST WISCONSIN

CITY           SKY/WX    TMP DP  RH WIND       PRES   REMARKS
SUPERIOR ARPT  CLOUDY    36  36 100 CALM      29.69R
ASHLAND        FOG       35  34  96 N6        29.67R VSB 1/4 WCI  30
HAYWARD        CLOUDY    35  33  92 CALM      29.66R
SIREN          CLOUDY    35  35  99 NW5       29.70R WCI  31
CUMBERLAND     CLOUDY    32  32 100 NW7       29.67R WCI  26
RICE LAKE      CLOUDY    35  35  99 NW3       29.68R
CHETEK         CLOUDY    34  34 100 NW3       29.67R FOG
LADYSMITH      CLOUDY    35  35  99 NW5       29.66R WCI  31
EAU CLAIRE     CLOUDY    35  34  96 NW6       29.66R WCI  30
MENOMONIE        N/A    N/A N/A N/A MISG        N/A
NEW RICHMOND   FOG       35  35 100 NW5       29.69R VSB 1/4 WCI  31
OSCEOLA        CLOUDY    36  36 100 CALM      29.73R FOG
$$

WIZ003>005-009-010-017-018-221700-
NORTH CENTRAL WISCONSIN

CITY           SKY/WX    TMP DP  RH WIND       PRES   REMARKS
MANITOWISH WTR CLOUDY    33  33 100 CALM      29.62R FOG
ARBOR VITAE    CLOUDY    37  36  98 NW3       29.61R FOG
WOODRUFF       CLOUDY    37  36  98 NW3       29.61R FOG
RHINELANDER    FOG       37  37 100 CALM      29.62R VSB 3/4
EAGLE RIVER    FOG       34  34 100 CALM      29.60R VSB 1/2
LAND O LAKES   FOG       36  36 100 CALM      29.62R VSB 1/4
PHILLIPS       CLOUDY    34  34 100 CALM      29.62R FOG
TOMAHAWK       FOG       35  34  97 CALM      29.62R VSB 3/4
MEDFORD        FOG       33  33  99 NW3       29.63R VSB 1/4
MERRILL        CLOUDY    35  35 100 W3          N/A
$$

WIZ029-030-035-036-043>047-221700-
CENTRAL WISCONSIN

CITY           SKY/WX    TMP DP  RH WIND       PRES   REMARKS
WAUSAU         CLOUDY    34  34 100 W5        29.62R FOG     WCI  30
MOSINEE        FOG       36  36 100 CALM      29.64R VSB 1/2
MARSHFIELD     FOG       34  32  92 W5        29.63R VSB 1/2 WCI  30
STEVENS POINT  CLOUDY    34  34 100 SW3       29.64S FOG
WAUPACA        FOG       38  37  97 CALM      29.65R VSB 1
WAUTOMA        NOT AVBL
WISC RAPIDS    CLOUDY    36  36 100 NW3       29.65R
CAMP DOUGLAS   FOG       37  37 100 W5        29.65R VSB 3/4 WCI  34
$$

WIZ011>013-019>022-031-037>040-048>050-221700-
NORTHEAST WISCONSIN

CITY           SKY/WX    TMP DP  RH WIND       PRES   REMARKS
ANTIGO         FOG       32  32 100 CALM      29.62R VSB 1/4
SHAWANO        CLOUDY    37  37  97 CALM      29.64R FOG
OCONTO         CLOUDY    35  34  99 CALM      29.64R VSB 1/4
STURGEON BAY   FOG       37  37 100 CALM      29.65R VSB 1/4
GREEN BAY      FOG       38  38 100 SW6       29.65R VSB 1/2 WCI  33
MANITOWOC      CLOUDY    39  38  96 W7        29.65S FOG     WCI  34
APPLETON       FOG       36  36 100 VRB6      29.62R VSB 1/8 WCI  31
CLINTONVILLE   FOG       36  36 100 CALM      29.64R VSB 1/4
OSHKOSH        FOG       37  37 100 CALM      29.65R VSB<1/4
$$

WIZ032>034-041-042-053>061-221700-
SOUTHWEST WISCONSIN

CITY           SKY/WX    TMP DP  RH WIND       PRES   REMARKS
LA CROSSE      FOG       39  35  86 CALM      29.67S VSB 1/4
SPARTA         FOG       35  35 100 W3        29.67S VSB 1/4
VIROQUA        CLOUDY    35  35 100 W3        29.65R VSB<1/4
BOSCOBEL       CLOUDY    38  36  92 CALM      29.67S FOG
PRAIRIE DU CHI CLOUDY    35  34  96 CALM      29.68R FOG
PLATTEVILLE    CLOUDY    37  37 100 N7        29.66R WCI  32
$$

WIZ056-057-062-063-064-067-068-221700-
SOUTH CENTRAL WISCONSIN

CITY           SKY/WX    TMP DP  RH WIND       PRES   REMARKS
REEDSBURG      CLOUDY    37  37 100 CALM      29.65R FOG
BARABOO/DELLS  CLOUDY    37  37  99 CALM      29.64R FOG
LONE ROCK      CLOUDY    38  36  92 W5        29.67R FOG     WCI  34
MINERAL POINT  CLOUDY    37  37 100 CALM      29.65R FOG
MADISON        CLOUDY    38  37  97 S3        29.67R FOG
MIDDLETON      CLOUDY    39  39 100 CALM      29.66R
WATERTOWN      CLOUDY    37  37 100 CALM      29.66R FOG
MONROE         FOG       36  36 100 CALM      29.65R VSB 1
JANESVILLE     CLOUDY    37  37 100 CALM      29.66R FOG
$$

WIZ051-052-058>065-066-070>072-221700-
SOUTHEAST WISCONSIN

CITY           SKY/WX    TMP DP  RH WIND       PRES   REMARKS
MILWAUKEE      CLOUDY    43  39  86 NW6       29.66R FOG
WAUKESHA       NOT AVBL
MILWAUKEE/TIMM CLOUDY    41  37  87 CALM      29.66R
RACINE         CLOUDY    42  39  89 NW5       29.67R
KENOSHA        CLOUDY    41  39  93 NW6       29.65R FOG
FOND DU LAC    FOG       38  36  92 CALM      29.65R VSB 1/4
SHEBOYGAN      CLOUDY    39  38  96 SW5       29.65S FOG
WEST BEND      CLOUDY    39  39 100 CALM      29.65S FOG
JUNEAU         FOG       37  37  99 SW3       29.67R VSB<1/4
$$

LSZ147-162-221700-
LAKE SUPERIOR

STATION/POSITION TIME  TEMP    WIND        PRES    WAVE
                       AIR SEA DIR/SP/G            HT/PER
                 (UTC) (F)     (DEG/KT/KT) (MB)    (FT/S)
DEVILS ISLAND    1500   35      20/  8/  9 1004.8R
PORT WING        1540   35      80/  1/  3 1005.4R
SAXON HARBOR     1540   34     300/  3/  5 1004.4R
$$

LMZ867-665-643>646-221700-
LAKE MICHIGAN

STATION/POSITION TIME  TEMP    WIND        PRES    WAVE
                       AIR SEA DIR/SP/G            HT/PER
                 (UTC) (F)     (DEG/KT/KT) (MB)    (FT/S)
NORTHPORT PIER   1540   34      CALM  /  2 1003.7R
SISTER BAY       1520   37        CALM       N/A
KEWAUNEE LAKESHO 1548   38     250/  2/  6 1003.6R
SHEBOYGAN LAKESH 1600   41     250/  5/  6 1004.3R
PORT WASHINGTON  1540   39     140/  1/  2 1005.4R
KENOSHA   LAKESH 1600   41     320/  4/  5 1004.4
$$

TC  - TEMPERATURE IN CELSIUS
VSB - VISIBILITY IN STATUTE MILES
WCI - WIND CHILL INDEX
HX  - HEAT INDEX





USA.gov is the U.S. government's official web portal to all federal, state and local government web resources and services.